Date String (YYYY-MM-DD hh:mm:ss) UTC,Instrument flags,Ambient pressure (hPa),Sample flow (lpm),Bypass flow (lpm),Sample temperature (°C),Ambient temperature (°C),ASC tube jacket temperature (°C),LED temperature (°C),Box temperature (°C),Sample RH (%),Span deviation,Mass concentration (μg/m³),Mass concentration (μg/m³),Mass concentration (μg/m³)
DateTimeUTC,F1_M11,P_M11,Q1_M11,Q2_M11,T1_M11,T2_M11,T3_M11,T4_M11,T5_M11,U1_M11,ZSPAN_M11,X0_M11,X2_M11,X1_M11
2022-09-20 22:00:00,,0826.5,5.00,0.00,29.7,28.2,00.0,38.2,31.6,11.4,0000.0,0008.44,0002.67,0002.14
2022-09-20 22:01:00,,0826.5,5.00,0.00,29.7,27.0,00.0,38.2,31.6,11.5,0000.0,0008.35,0002.66,0002.13
2022-09-20 22:02:00,,0826.5,5.00,0.00,29.6,26.6,00.0,38.2,31.5,11.7,0000.0,0008.16,0002.69,0002.13
2022-09-20 22:03:00,,0826.5,5.00,0.00,29.6,26.9,00.0,38.1,31.4,11.7,0000.0,0008.33,0002.75,0002.13
2022-09-20 22:04:00,,0826.5,5.00,0.00,29.6,27.1,00.0,38.1,31.3,11.8,0000.0,0008.33,0002.77,0002.13
2022-09-20 22:05:00,,0826.5,5.00,0.00,29.5,27.5,00.0,38.2,31.3,12.0,0000.0,0007.90,0002.81,0002.13
2022-09-20 22:06:00,,0826.5,5.00,0.00,29.5,27.8,00.0,38.2,31.4,12.2,0000.0,0008.04,0002.86,0002.13
2022-09-20 22:07:00,,0826.4,4.99,0.00,29.6,28.0,00.0,38.2,31.4,12.0,0000.0,0008.73,0002.86,0002.13
2022-09-20 22:08:00,,0826.5,5.00,0.00,29.6,28.2,00.0,38.2,31.5,12.2,0000.0,0008.62,0002.89,0002.14
2022-09-20 22:09:00,,0826.5,5.00,0.00,29.7,28.3,00.0,38.2,31.6,12.0,0000.0,0008.13,0002.90,0002.15
2022-09-20 22:10:00,,0826.5,5.01,0.00,29.7,27.5,00.0,38.2,31.6,11.9,0000.0,0008.04,0002.89,0002.15
2022-09-20 22:11:00,,0826.5,5.00,0.00,29.6,26.5,00.0,38.2,31.5,12.1,0000.0,0007.57,0002.90,0002.15
2022-09-20 22:12:00,,0826.5,5.00,0.00,29.6,26.6,00.0,38.2,31.4,11.6,0000.0,0008.59,0002.94,0002.17
2022-09-20 22:13:00,,0826.5,4.99,0.00,29.6,26.8,00.0,38.1,31.3,11.9,0000.0,0009.29,0003.02,0002.19
2022-09-20 22:14:00,,0826.5,5.00,0.00,29.5,27.1,00.0,38.1,31.2,11.7,0000.0,0009.69,0003.07,0002.20
2022-09-20 22:15:00,,0826.5,5.00,0.00,29.5,27.5,00.0,38.1,31.3,11.9,0000.0,0010.03,0003.12,0002.21
2022-09-20 22:16:00,,0826.5,5.01,0.00,29.5,27.8,00.0,38.1,31.4,12.3,0000.0,0010.64,0003.20,0002.24
2022-09-20 22:17:00,,0826.5,4.99,0.00,29.6,28.0,00.0,38.2,31.4,12.4,0000.0,0012.63,0003.42,0002.29
2022-09-20 22:18:00,,0826.5,5.00,0.00,29.6,28.2,00.0,38.2,31.5,12.6,0000.0,0012.51,0003.43,0002.30
2022-09-20 22:19:00,,0826.5,5.00,0.00,29.6,28.4,00.0,38.2,31.6,11.9,0000.0,0012.40,0003.43,0002.30
2022-09-20 22:20:00,,0826.5,5.01,0.00,29.7,27.7,00.0,38.2,31.6,11.8,0000.0,0012.59,0003.43,0002.31
2022-09-20 22:21:00,,0826.4,5.00,0.00,29.6,26.6,00.0,38.2,31.5,11.7,0000.0,0013.78,0003.46,0002.32
2022-09-20 22:22:00,,0826.5,5.00,0.00,29.6,26.5,00.0,38.1,31.4,11.9,0000.0,0013.79,0003.46,0002.33
2022-09-20 22:23:00,,0826.5,5.00,0.00,29.5,26.8,00.0,38.1,31.3,11.9,0000.0,0013.48,0003.46,0002.32
2022-09-20 22:24:00,,0826.4,5.00,0.00,29.5,27.1,00.0,38.1,31.2,11.8,0000.0,0012.68,0003.44,0002.33
2022-09-20 22:25:00,,0826.4,4.99,0.00,29.5,27.4,00.0,38.1,31.3,11.7,0000.0,0012.09,0003.38,0002.34
2022-09-20 22:26:00,,0826.4,5.01,0.00,29.5,27.7,00.0,38.1,31.3,12.2,0000.0,0011.48,0003.37,0002.33
2022-09-20 22:27:00,,0826.4,4.99,0.00,29.5,28.0,00.0,38.1,31.4,12.1,0000.0,0011.06,0003.33,0002.34
2022-09-20 22:28:00,,0826.4,4.99,0.00,29.6,28.2,00.0,38.2,31.4,11.9,0000.0,0008.97,0003.06,0002.32
2022-09-20 22:29:00,,0826.4,5.01,0.00,29.6,28.4,00.0,38.2,31.5,12.0,0000.0,0007.98,0002.96,0002.32
2022-09-20 22:30:00,,0826.4,5.00,0.00,29.7,28.4,00.0,38.2,31.6,11.8,0000.0,0008.45,0003.07,0002.31
2022-09-20 22:31:00,,0826.4,5.00,0.00,29.7,27.4,00.0,38.2,31.6,11.8,0000.0,0008.74,0003.11,0002.30
2022-09-20 22:32:00,,0826.3,5.01,0.00,29.6,26.5,00.0,38.2,31.5,11.7,0000.0,0007.65,0003.04,0002.28
2022-09-20 22:33:00,,0826.3,4.99,0.00,29.6,26.7,00.0,38.1,31.5,11.5,0000.0,0007.50,0003.04,0002.27
2022-09-20 22:34:00,,0826.2,5.00,0.00,29.5,26.9,00.0,38.1,31.3,11.8,0000.0,0006.58,0003.03,0002.26
2022-09-20 22:35:00,,0826.3,5.01,0.00,29.5,27.2,00.0,38.1,31.2,12.0,0000.0,0006.55,0003.00,0002.24
2022-09-20 22:36:00,,0826.3,4.99,0.00,29.5,27.6,00.0,38.1,31.3,12.3,0000.0,0006.79,0003.05,0002.23
2022-09-20 22:37:00,,0826.2,5.02,0.00,29.5,27.9,00.0,38.2,31.4,12.0,0000.0,0006.71,0003.05,0002.23
2022-09-20 22:38:00,,0826.2,4.99,0.00,29.6,28.1,00.0,38.2,31.4,11.7,0000.0,0006.74,0003.05,0002.22
2022-09-20 22:39:00,,0826.2,5.00,0.00,29.6,28.3,00.0,38.2,31.5,11.7,0000.0,0007.06,0003.00,0002.19
2022-09-20 22:40:00,,0826.2,5.01,0.00,29.7,28.4,00.0,38.2,31.6,11.7,0000.0,0007.05,0002.99,0002.17
2022-09-20 22:41:00,,0826.2,4.99,0.00,29.7,27.5,00.0,38.2,31.6,11.8,0000.0,0007.00,0002.89,0002.17
2022-09-20 22:42:00,,0826.2,5.00,0.00,29.6,26.5,00.0,38.2,31.4,12.4,0000.0,0006.72,0002.88,0002.18
2022-09-20 22:43:00,,0826.2,5.01,0.00,29.6,26.6,00.0,38.1,31.4,12.4,0000.0,0007.14,0002.93,0002.19
2022-09-20 22:44:00,,0826.2,5.00,0.00,29.5,26.8,00.0,38.1,31.2,12.6,0000.0,0008.11,0002.93,0002.19
2022-09-20 22:45:00,,0826.2,5.00,0.00,29.5,27.1,00.0,38.1,31.2,13.1,0000.0,0008.16,0002.92,0002.20
2022-09-20 22:46:00,,0826.2,4.99,0.00,29.5,27.5,00.0,38.1,31.3,13.1,0000.0,0008.82,0002.96,0002.22
2022-09-20 22:47:00,,0826.2,5.02,0.00,29.5,27.8,00.0,38.1,31.3,12.7,0000.0,0009.31,0003.00,0002.22
2022-09-20 22:48:00,,0826.2,4.99,0.00,29.6,28.0,00.0,38.2,31.4,12.3,0000.0,0009.73,0003.01,0002.22
2022-09-20 22:49:00,,0826.2,5.00,0.00,29.6,28.2,00.0,38.2,31.5,12.1,0000.0,0010.27,0003.02,0002.21
2022-09-20 22:50:00,,0826.2,5.01,0.00,29.6,28.4,00.0,38.2,31.6,12.8,0000.0,0010.44,0003.04,0002.22
2022-09-20 22:51:00,,0826.2,4.99,0.00,29.7,27.6,00.0,38.2,31.6,12.6,0000.0,0010.67,0003.05,0002.22
2022-09-20 22:52:00,,0826.3,5.00,0.00,29.6,26.5,00.0,38.2,31.4,12.3,0000.0,0011.23,0003.09,0002.21
2022-09-20 22:53:00,,0826.2,5.01,0.00,29.6,26.5,00.0,38.1,31.4,12.8,0000.0,0011.06,0003.10,0002.22
2022-09-20 22:54:00,,0826.2,5.01,0.00,29.5,26.8,00.0,38.1,31.2,12.9,0000.0,0010.74,0003.09,0002.21
2022-09-20 22:55:00,,0826.3,4.99,0.00,29.5,27.1,00.0,38.1,31.1,13.4,0000.0,0010.35,0003.12,0002.20
2022-09-20 22:56:00,,0826.3,4.99,0.00,29.5,27.4,00.0,38.1,31.2,13.5,0000.0,0011.41,0003.14,0002.21
2022-09-20 22:57:00,,0826.4,5.00,0.00,29.5,27.7,00.0,38.1,31.3,13.6,0000.0,0011.25,0003.12,0002.20
2022-09-20 22:58:00,,0826.4,4.99,0.00,29.5,28.0,00.0,38.1,31.4,13.6,0000.0,0010.84,0003.09,0002.19
2022-09-20 22:59:00,,0826.4,5.01,0.00,29.6,28.2,00.0,38.2,31.5,13.5,0000.0,0010.54,0003.11,0002.19
